• In Uzbekistan
  • List of Countries
  • For 7 days
  • Water Temperature
  • Satellite Maps
  • Weather Map
  • Weather Widgets
  • user-avatar
    Login

    Hourly Weather La Rioja

    Today, 23 August, Wednesday

    Time Temperature Precipitation Wind Pressure Humidity
    00:00 +19°C° 0 mm 3 mps 706 mmHg 22%
    01:00 +18°C° 0 mm 2 mps 706 mmHg 23%
    02:00 +18°C° 0 mm 2 mps 706 mmHg 24%
    03:00 +17°C° 0 mm 2 mps 706 mmHg 25%
    04:00 +17°C° 0 mm 2 mps 706 mmHg 26%
    05:00 +16°C° 0 mm 2 mps 707 mmHg 26%
    06:00 +17°C° 0 mm 2 mps 707 mmHg 26%
    07:00 +18°C° 0 mm 2 mps 708 mmHg 26%
    08:00 +18°C° 0 mm 2 mps 709 mmHg 25%
    09:00 +20°C° 0 mm 4 mps 710 mmHg 22%
    10:00 +22°C° 0 mm 5 mps 711 mmHg 19%
    11:00 +24°C° 0 mm 6 mps 712 mmHg 16%
    12:00 +24°C° 0 mm 6 mps 711 mmHg 16%
    13:00 +26°C° 0 mm 6 mps 711 mmHg 17%
    14:00 +26°C° 0 mm 6 mps 710 mmHg 17%
    15:00 +26°C° 0 mm 5 mps 710 mmHg 18%
    16:00 +25°C° 0 mm 5 mps 710 mmHg 19%
    17:00 +25°C° 0 mm 4 mps 710 mmHg 20%
    18:00 +22°C° 0 mm 3 mps 710 mmHg 23%
    19:00 +20°C° 0 mm 2 mps 711 mmHg 26%
    20:00 +19°C° 0 mm 1 mps 711 mmHg 29%
    21:00 +19°C° 0 mm 1 mps 711 mmHg 30%
    22:00 +18°C° 0 mm 2 mps 711 mmHg 32%
    23:00 +17°C° 0 mm 2 mps 711 mmHg 34%

    Tomorrow, 24 August, Thursday

    Time Temperature Precipitation Wind Pressure Humidity
    00:00 +17°C° 0 mm 2 mps 711 mmHg 35%
    01:00 +16°C° 0 mm 2 mps 710 mmHg 36%
    02:00 +16°C° 0 mm 2 mps 710 mmHg 37%
    03:00 +16°C° 0 mm 2 mps 710 mmHg 38%
    04:00 +15°C° 0 mm 2 mps 709 mmHg 38%
    05:00 +15°C° 0 mm 2 mps 709 mmHg 38%
    06:00 +16°C° 0 mm 2 mps 710 mmHg 36%
    07:00 +17°C° 0 mm 2 mps 710 mmHg 34%
    08:00 +19°C° 0 mm 1 mps 711 mmHg 32%
    09:00 +21°C° 0 mm 2 mps 710 mmHg 29%
    10:00 +24°C° 0 mm 2 mps 710 mmHg 26%
    11:00 +26°C° 0 mm 2 mps 710 mmHg 24%
    12:00 +27°C° 0 mm 2 mps 709 mmHg 22%
    13:00 +29°C° 0 mm 2 mps 709 mmHg 20%
    14:00 +30°C° 0 mm 2 mps 708 mmHg 17%
    15:00 +30°C° 0 mm 2 mps 707 mmHg 17%
    16:00 +30°C° 0 mm 2 mps 707 mmHg 17%
    17:00 +30°C° 0 mm 2 mps 707 mmHg 17%
    18:00 +28°C° 0 mm 2 mps 707 mmHg 19%
    19:00 +26°C° 0 mm 2 mps 708 mmHg 22%
    20:00 +24°C° 0 mm 2 mps 708 mmHg 24%
    21:00 +24°C° 0 mm 2 mps 708 mmHg 27%
    22:00 +23°C° 0 mm 2 mps 708 mmHg 30%
    23:00 +23°C° 0 mm 2 mps 708 mmHg 33%

    Day after tomorrow, 25 August, Friday

    Time Temperature Precipitation Wind Pressure Humidity
    00:00 +21°C° 0 mm 2 mps 708 mmHg 34%
    01:00 +21°C° 0 mm 2 mps 708 mmHg 35%
    02:00 +21°C° 0 mm 2 mps 708 mmHg 36%
    03:00 +20°C° 0 mm 2 mps 708 mmHg 38%
    04:00 +19°C° 0 mm 2 mps 708 mmHg 39%
    05:00 +19°C° 0 mm 2 mps 708 mmHg 40%
    06:00 +19°C° 0 mm 3 mps 709 mmHg 38%
    07:00 +20°C° 0 mm 4 mps 710 mmHg 35%
    08:00 +20°C° 0 mm 5 mps 711 mmHg 33%
    09:00 +22°C° 0 mm 5 mps 711 mmHg 28%
    10:00 +23°C° 0 mm 6 mps 711 mmHg 22%
    11:00 +26°C° 0 mm 6 mps 711 mmHg 16%
    12:00 +27°C° 0 mm 6 mps 711 mmHg 16%
    13:00 +28°C° 0 mm 5 mps 711 mmHg 16%
    14:00 +29°C° 0 mm 5 mps 710 mmHg 16%
    15:00 +28°C° 0 mm 5 mps 711 mmHg 16%
    16:00 +28°C° 0 mm 5 mps 711 mmHg 17%
    17:00 +27°C° 0 mm 6 mps 711 mmHg 18%
    18:00 +25°C° 0 mm 5 mps 712 mmHg 24%
    19:00 +22°C° 0 mm 5 mps 713 mmHg 30%
    20:00 +20°C° 0 mm 5 mps 714 mmHg 37%
    21:00 +19°C° 0 mm 5 mps 714 mmHg 41%
    22:00 +17°C° 0 mm 5 mps 715 mmHg 46%
    23:00 +16°C° 0 mm 5 mps 716 mmHg 50%

    26 August, Saturday

    Time Temperature Precipitation Wind Pressure Humidity
    00:00 +17°C° 0 mm 4 mps 716 mmHg 53%
    01:00 +16°C° 0 mm 3 mps 716 mmHg 56%
    02:00 +14°C° 0 mm 3 mps 716 mmHg 59%
    03:00 +15°C° 0 mm 2 mps 716 mmHg 60%
    04:00 +14°C° 0 mm 2 mps 716 mmHg 61%
    05:00 +14°C° 0 mm 2 mps 716 mmHg 62%
    06:00 +14°C° 0 mm 2 mps 717 mmHg 60%
    07:00 +15°C° 0 mm 2 mps 717 mmHg 57%
    08:00 +15°C° 0 mm 2 mps 718 mmHg 54%
    09:00 +17°C° 0 mm 2 mps 718 mmHg 47%
    10:00 +19°C° 0 mm 3 mps 718 mmHg 40%
    11:00 +20°C° 0 mm 3 mps 718 mmHg 33%
    12:00 +21°C° 0 mm 3 mps 717 mmHg 31%
    13:00 +22°C° 0 mm 3 mps 716 mmHg 28%
    14:00 +24°C° 0 mm 3 mps 715 mmHg 26%
    15:00 +24°C° 0 mm 3 mps 715 mmHg 25%
    16:00 +24°C° 0 mm 3 mps 714 mmHg 25%
    17:00 +24°C° 0 mm 3 mps 714 mmHg 24%
    18:00 +23°C° 0 mm 2 mps 714 mmHg 27%
    19:00 +20°C° 0 mm 2 mps 715 mmHg 30%
    20:00 +19°C° 0 mm 2 mps 715 mmHg 32%
    21:00 +19°C° 0 mm 2 mps 715 mmHg 33%
    22:00 +18°C° 0 mm 2 mps 715 mmHg 35%
    23:00 +18°C° 0 mm 2 mps 715 mmHg 36%

    27 August, Sunday

    Time Temperature Precipitation Wind Pressure Humidity
    00:00 +17°C° 0 mm 2 mps 715 mmHg 39%
    01:00 +16°C° 0 mm 2 mps 714 mmHg 42%
    02:00 +16°C° 0 mm 2 mps 714 mmHg 45%
    03:00 +15°C° 0 mm 2 mps 713 mmHg 48%
    04:00 +15°C° 0 mm 2 mps 713 mmHg 51%
    05:00 +14°C° 0 mm 2 mps 713 mmHg 54%
    06:00 +15°C° 0 mm 2 mps 713 mmHg 53%
    07:00 +16°C° 0 mm 2 mps 713 mmHg 52%
    08:00 +16°C° 0 mm 2 mps 714 mmHg 51%
    09:00 +18°C° 0 mm 2 mps 713 mmHg 46%
    10:00 +20°C° 0 mm 2 mps 713 mmHg 42%
    11:00 +23°C° 0 mm 2 mps 713 mmHg 38%
    12:00 +25°C° 0 mm 2 mps 712 mmHg 35%
    13:00 +26°C° 0 mm 3 mps 712 mmHg 31%
    14:00 +27°C° 0 mm 3 mps 711 mmHg 28%
    15:00 +27°C° 0 mm 3 mps 711 mmHg 28%
    16:00 +27°C° 0 mm 3 mps 710 mmHg 28%
    17:00 +27°C° 0 mm 3 mps 710 mmHg 28%
    18:00 +26°C° 0 mm 3 mps 711 mmHg 34%
    19:00 +24°C° 0 mm 3 mps 711 mmHg 41%
    20:00 +21°C° 0 mm 3 mps 712 mmHg 47%
    21:00 +21°C° 0 mm 2 mps 712 mmHg 55%
    22:00 +20°C° 0 mm 2 mps 712 mmHg 62%
    23:00 +19°C° 0 mm 2 mps 712 mmHg 70%

    28 August, Monday

    Time Temperature Precipitation Wind Pressure Humidity
    00:00 +19°C° 0 mm 2 mps 712 mmHg 71%
    01:00 +18°C° 0 mm 2 mps 712 mmHg 73%
    02:00 +19°C° 0 mm 1 mps 711 mmHg 74%
    03:00 +19°C° 0 mm 1 mps 711 mmHg 74%
    04:00 +19°C° 0 mm 1 mps 711 mmHg 74%
    05:00 +19°C° 0 mm 1 mps 711 mmHg 74%
    06:00 +18°C° 0 mm 2 mps 711 mmHg 72%
    07:00 +19°C° 0 mm 2 mps 712 mmHg 70%
    08:00 +19°C° 0 mm 2 mps 712 mmHg 68%
    09:00 +20°C° 0 mm 2 mps 712 mmHg 64%
    10:00 +23°C° 0 mm 2 mps 711 mmHg 60%
    11:00 +24°C° 0 mm 2 mps 711 mmHg 56%
    12:00 +25°C° 0 mm 2 mps 711 mmHg 54%
    13:00 +26°C° 0 mm 3 mps 710 mmHg 51%
    14:00 +27°C° 0 mm 3 mps 709 mmHg 48%
    15:00 +27°C° 0 mm 3 mps 709 mmHg 49%
    16:00 +27°C° 0 mm 3 mps 709 mmHg 51%
    17:00 +26°C° 0 mm 4 mps 709 mmHg 52%
    18:00 +25°C° 0 mm 3 mps 710 mmHg 59%
    19:00 +24°C° 0 mm 3 mps 711 mmHg 66%
    20:00 +23°C° 0 mm 2 mps 711 mmHg 72%
    21:00 +23°C° 0 mm 2 mps 712 mmHg 73%
    22:00 +21°C° 0 mm 2 mps 712 mmHg 74%
    23:00 +21°C° 0 mm 2 mps 713 mmHg 75%
    Show more